User: anonymous   Login
Location: Unspecified
(0.0000°N, 0.0000°E)
Time: 07:10:11
(UTC+00:00)
Language:

DSCS III A-2 - Orbit

View from above orbital plane
View from above orbital plane
View from above satellite
View from above satellite

Ground track
Ground track

The orbit data is extracted from the following two-line orbital elements,

1 20203U 89069B   23272.56091154 -.00000318  00000-0  00000+0 0  9998
2 20203  14.3323  11.2985 0008102  19.5409 322.4169  0.99121828 15159
Epoch (UTC): 29 September 2023 13:27:42
Eccentricity: 0.0008102
inclination: 14.3323°
perigee height: 36077 km
apogee height: 36146 km
right ascension of ascending node: 11.2985°
argument of perigee: 19.5409°
revolutions per day: 0.99121828
mean anomaly at epoch: 322.4169°
orbit number at epoch: 1515

The dashed part of the orbit path shows where the satellite is in the earth's shadow,  

DLR